contact:dominique.lefevre@mio.osupytheas.fr, maurice.libes@osupytheas.fr, didier.mallarino@osupytheas.fr
Project:EMSO http://www.emso-fr.org/EMSO-France
Depth: 2436.0 m
Title:EMSO Ligure Ouest : Data MII capteur MICROCAT
DateTime_Computer,Latitude,Longitude,Temperature,Conductivity,Pressure,DateTime_Instrument
DateTime_Computer,Latitude,Longitude,degC,S m-1,dbar,DateTime_Instrument
2023-05-14T00:00:47Z,42.805,6.029,13.3017,4.60077,2470.693,2023-5-14T02:03:59Z
2023-05-14T00:03:50Z,42.805,6.029,13.3018,4.60079,2470.717,2023-5-14T02:07:03Z
2023-05-14T00:06:53Z,42.805,6.029,13.3021,4.60079,2470.717,2023-5-14T02:10:06Z
2023-05-14T00:09:56Z,42.805,6.029,13.3015,4.60077,2470.693,2023-5-14T02:13:09Z
2023-05-14T00:12:59Z,42.805,6.029,13.3017,4.60073,2470.754,2023-5-14T02:16:12Z
2023-05-14T00:16:02Z,42.805,6.029,13.3015,4.60081,2470.707,2023-5-14T02:19:15Z
2023-05-14T00:19:05Z,42.805,6.029,13.3017,4.60081,2470.73,2023-5-14T02:22:18Z
2023-05-14T00:22:08Z,42.805,6.029,13.3014,4.60084,2470.74,2023-5-14T02:25:21Z
2023-05-14T00:25:11Z,42.805,6.029,13.3014,4.60080,2470.754,2023-5-14T02:28:24Z
2023-05-14T00:28:15Z,42.805,6.029,13.3015,4.60074,2470.717,2023-5-14T02:31:27Z
2023-05-14T00:31:18Z,42.805,6.029,13.3015,4.60074,2470.717,2023-5-14T02:34:30Z
2023-05-14T00:34:21Z,42.805,6.029,13.3017,4.60080,2470.73,2023-5-14T02:37:33Z
2023-05-14T00:37:24Z,42.805,6.029,13.3018,4.60076,2470.693,2023-5-14T02:40:36Z
2023-05-14T00:40:27Z,42.805,6.029,13.3019,4.60077,2470.74,2023-5-14T02:43:40Z
2023-05-14T00:43:30Z,42.805,6.029,13.3020,4.60079,2470.717,2023-5-14T02:46:43Z
2023-05-14T00:46:33Z,42.805,6.029,13.3018,4.60078,2470.717,2023-5-14T02:49:46Z
2023-05-14T00:49:36Z,42.805,6.029,13.3015,4.60078,2470.754,2023-5-14T02:52:49Z
2023-05-14T00:52:39Z,42.805,6.029,13.3016,4.60080,2470.754,2023-5-14T02:55:52Z
2023-05-14T00:55:42Z,42.805,6.029,13.3013,4.60075,2470.74,2023-5-14T02:58:55Z
2023-05-14T00:58:45Z,42.805,6.029,13.3014,4.60081,2470.763,2023-5-14T03:01:58Z
2023-05-14T01:01:48Z,42.805,6.029,13.3019,4.60084,2470.717,2023-5-14T03:05:01Z
2023-05-14T01:04:51Z,42.805,6.029,13.3018,4.60078,2470.74,2023-5-14T03:08:04Z
2023-05-14T01:07:55Z,42.805,6.029,13.3018,4.60081,2470.74,2023-5-14T03:11:07Z
2023-05-14T01:10:58Z,42.805,6.029,13.3018,4.60081,2470.717,2023-5-14T03:14:10Z
2023-05-14T01:14:01Z,42.805,6.029,13.3015,4.60081,2470.74,2023-5-14T03:17:13Z
2023-05-14T01:17:04Z,42.805,6.029,13.3015,4.60077,2470.763,2023-5-14T03:20:17Z
2023-05-14T01:20:07Z,42.805,6.029,13.3014,4.60080,2470.754,2023-5-14T03:23:20Z
2023-05-14T01:23:10Z,42.805,6.029,13.3020,4.60078,2470.74,2023-5-14T03:26:23Z
2023-05-14T01:26:13Z,42.805,6.029,13.3019,4.60074,2470.74,2023-5-14T03:29:26Z
2023-05-14T01:29:16Z,42.805,6.029,13.3016,4.60080,2470.754,2023-5-14T03:32:29Z
2023-05-14T01:32:19Z,42.805,6.029,13.3019,4.60079,2470.754,2023-5-14T03:35:32Z
2023-05-14T01:35:22Z,42.805,6.029,13.3016,4.60076,2470.74,2023-5-14T03:38:35Z
2023-05-14T01:38:25Z,42.805,6.029,13.3015,4.60079,2470.74,2023-5-14T03:41:38Z
2023-05-14T01:41:28Z,42.805,6.029,13.3020,4.60081,2470.787,2023-5-14T03:44:41Z
2023-05-14T01:44:32Z,42.805,6.029,13.3018,4.60079,2470.763,2023-5-14T03:47:44Z
2023-05-14T01:47:35Z,42.805,6.029,13.3017,4.60079,2470.763,2023-5-14T03:50:47Z
2023-05-14T01:50:38Z,42.805,6.029,13.3017,4.60079,2470.763,2023-5-14T03:53:50Z
2023-05-14T01:53:41Z,42.805,6.029,13.3015,4.60076,2470.763,2023-5-14T03:56:53Z
2023-05-14T01:56:44Z,42.805,6.029,13.3019,4.60074,2470.763,2023-5-14T03:59:57Z
2023-05-14T01:59:47Z,42.805,6.029,13.3014,4.60077,2470.763,2023-5-14T04:03:00Z
2023-05-14T02:02:50Z,42.805,6.029,13.3019,4.60080,2470.8,2023-5-14T04:06:03Z
2023-05-14T02:05:53Z,42.805,6.029,13.3014,4.60078,2470.763,2023-5-14T04:09:06Z
2023-05-14T02:08:56Z,42.805,6.029,13.3016,4.60075,2470.787,2023-5-14T04:12:09Z
2023-05-14T02:11:59Z,42.805,6.029,13.3014,4.60074,2470.763,2023-5-14T04:15:12Z
2023-05-14T02:15:02Z,42.805,6.029,13.3016,4.60074,2470.754,2023-5-14T04:18:15Z
2023-05-14T02:18:05Z,42.805,6.029,13.3016,4.60077,2470.777,2023-5-14T04:21:18Z
2023-05-14T02:21:08Z,42.805,6.029,13.3016,4.60072,2470.8,2023-5-14T04:24:21Z
2023-05-14T02:24:12Z,42.805,6.029,13.3017,4.60075,2470.787,2023-5-14T04:27:24Z
2023-05-14T02:27:15Z,42.805,6.029,13.3014,4.60075,2470.763,2023-5-14T04:30:27Z
2023-05-14T02:30:18Z,42.805,6.029,13.3015,4.60078,2470.773,2023-5-14T04:33:30Z
2023-05-14T02:33:21Z,42.805,6.029,13.3021,4.60075,2470.754,2023-5-14T04:36:34Z
2023-05-14T02:36:24Z,42.805,6.029,13.3015,4.60078,2470.763,2023-5-14T04:39:37Z
2023-05-14T02:39:27Z,42.805,6.029,13.3018,4.60074,2470.754,2023-5-14T04:42:40Z
2023-05-14T02:42:30Z,42.805,6.029,13.3016,4.60076,2470.754,2023-5-14T04:45:43Z
2023-05-14T02:45:33Z,42.805,6.029,13.3017,4.60077,2470.8,2023-5-14T04:48:46Z
2023-05-14T02:48:36Z,42.805,6.029,13.3019,4.60075,2470.773,2023-5-14T04:51:49Z
2023-05-14T02:51:39Z,42.805,6.029,13.3017,4.60076,2470.777,2023-5-14T04:54:52Z
2023-05-14T02:54:42Z,42.805,6.029,13.3018,4.60079,2470.754,2023-5-14T04:57:55Z
2023-05-14T02:57:45Z,42.805,6.029,13.3018,4.60074,2470.754,2023-5-14T05:00:58Z
2023-05-14T03:00:48Z,42.805,6.029,13.3016,4.60074,2470.824,2023-5-14T05:04:01Z
2023-05-14T03:03:52Z,42.805,6.029,13.3021,4.60074,2470.787,2023-5-14T05:07:04Z
2023-05-14T03:06:55Z,42.805,6.029,13.3020,4.60074,2470.763,2023-5-14T05:10:07Z
2023-05-14T03:09:58Z,42.805,6.029,13.3017,4.60074,2470.787,2023-5-14T05:13:10Z
2023-05-14T03:13:01Z,42.805,6.029,13.3014,4.60078,2470.777,2023-5-14T05:16:14Z
2023-05-14T03:16:04Z,42.805,6.029,13.3014,4.60077,2470.763,2023-5-14T05:19:17Z
2023-05-14T03:19:07Z,42.805,6.029,13.3014,4.60075,2470.763,2023-5-14T05:22:20Z
2023-05-14T03:22:10Z,42.805,6.029,13.3014,4.60075,2470.777,2023-5-14T05:25:23Z
2023-05-14T03:25:13Z,42.805,6.029,13.3013,4.60072,2470.75,2023-5-14T05:28:26Z
2023-05-14T03:28:16Z,42.805,6.029,13.3013,4.60073,2470.763,2023-5-14T05:31:29Z
2023-05-14T03:31:19Z,42.805,6.029,13.3015,4.60075,2470.73,2023-5-14T05:34:32Z
2023-05-14T03:34:22Z,42.805,6.029,13.3015,4.60074,2470.763,2023-5-14T05:37:35Z
2023-05-14T03:37:25Z,42.805,6.029,13.3018,4.60073,2470.777,2023-5-14T05:40:38Z
2023-05-14T03:40:29Z,42.805,6.029,13.3019,4.60074,2470.754,2023-5-14T05:43:41Z
2023-05-14T03:43:32Z,42.805,6.029,13.3014,4.60078,2470.787,2023-5-14T05:46:44Z
2023-05-14T03:46:35Z,42.805,6.029,13.3013,4.60078,2470.717,2023-5-14T05:49:47Z
2023-05-14T03:49:38Z,42.805,6.029,13.3013,4.60072,2470.754,2023-5-14T05:52:51Z
2023-05-14T03:52:41Z,42.805,6.029,13.3015,4.60077,2470.754,2023-5-14T05:55:54Z
2023-05-14T03:55:44Z,42.805,6.029,13.3014,4.60075,2470.777,2023-5-14T05:58:57Z
2023-05-14T03:58:47Z,42.805,6.029,13.3014,4.60074,2470.763,2023-5-14T06:02:00Z
2023-05-14T04:01:50Z,42.805,6.029,13.3019,4.60074,2470.763,2023-5-14T06:05:03Z
2023-05-14T04:04:53Z,42.805,6.029,13.3017,4.60074,2470.763,2023-5-14T06:08:06Z
2023-05-14T04:07:56Z,42.805,6.029,13.3017,4.60077,2470.777,2023-5-14T06:11:09Z
2023-05-14T04:10:59Z,42.805,6.029,13.3016,4.60074,2470.754,2023-5-14T06:14:12Z
2023-05-14T04:14:02Z,42.805,6.029,13.3015,4.60077,2470.74,2023-5-14T06:17:15Z
2023-05-14T04:17:05Z,42.805,6.029,13.3015,4.60076,2470.763,2023-5-14T06:20:18Z
2023-05-14T04:20:09Z,42.805,6.029,13.3016,4.60076,2470.763,2023-5-14T06:23:21Z
2023-05-14T04:23:12Z,42.805,6.029,13.3018,4.60076,2470.74,2023-5-14T06:26:24Z
2023-05-14T04:26:15Z,42.805,6.029,13.3015,4.60079,2470.74,2023-5-14T06:29:28Z
2023-05-14T04:29:18Z,42.805,6.029,13.3013,4.60074,2470.75,2023-5-14T06:32:31Z
2023-05-14T04:32:21Z,42.805,6.029,13.3018,4.60074,2470.754,2023-5-14T06:35:34Z
2023-05-14T04:35:24Z,42.805,6.029,13.3019,4.60074,2470.73,2023-5-14T06:38:37Z
2023-05-14T04:38:27Z,42.805,6.029,13.3019,4.60073,2470.74,2023-5-14T06:41:40Z
2023-05-14T04:41:30Z,42.805,6.029,13.3016,4.60075,2470.693,2023-5-14T06:44:43Z
2023-05-14T04:44:33Z,42.805,6.029,13.3016,4.60073,2470.74,2023-5-14T06:47:46Z
2023-05-14T04:47:36Z,42.805,6.029,13.3018,4.60074,2470.74,2023-5-14T06:50:49Z
2023-05-14T04:50:39Z,42.805,6.029,13.3019,4.60072,2470.717,2023-5-14T06:53:52Z
2023-05-14T04:53:42Z,42.805,6.029,13.3011,4.60076,2470.717,2023-5-14T06:56:55Z
2023-05-14T04:56:46Z,42.805,6.029,13.3016,4.60077,2470.717,2023-5-14T06:59:58Z
2023-05-14T04:59:49Z,42.805,6.029,13.3015,4.60073,2470.717,2023-5-14T07:03:01Z
2023-05-14T05:02:52Z,42.805,6.029,13.3015,4.60076,2470.707,2023-5-14T07:06:05Z
2023-05-14T05:05:55Z,42.805,6.029,13.3019,4.60073,2470.717,2023-5-14T07:09:08Z
2023-05-14T05:08:58Z,42.805,6.029,13.3018,4.60074,2470.74,2023-5-14T07:12:11Z
2023-05-14T05:12:01Z,42.805,6.029,13.3018,4.60075,2470.754,2023-5-14T07:15:14Z
2023-05-14T05:15:04Z,42.805,6.029,13.3019,4.60074,2470.717,2023-5-14T07:18:17Z
2023-05-14T05:18:07Z,42.805,6.029,13.3013,4.60072,2470.73,2023-5-14T07:21:20Z
2023-05-14T05:21:10Z,42.805,6.029,13.3015,4.60073,2470.684,2023-5-14T07:24:23Z
2023-05-14T05:24:13Z,42.805,6.029,13.3016,4.60077,2470.74,2023-5-14T07:27:26Z
2023-05-14T05:27:16Z,42.805,6.029,13.3014,4.60074,2470.693,2023-5-14T07:30:29Z
2023-05-14T05:30:19Z,42.805,6.029,13.3016,4.60077,2470.717,2023-5-14T07:33:32Z
2023-05-14T05:33:22Z,42.805,6.029,13.3015,4.60077,2470.717,2023-5-14T07:36:35Z
2023-05-14T05:36:26Z,42.805,6.029,13.3016,4.60074,2470.73,2023-5-14T07:39:38Z
2023-05-14T05:39:29Z,42.805,6.029,13.3014,4.60074,2470.67,2023-5-14T07:42:41Z
2023-05-14T05:42:32Z,42.805,6.029,13.3015,4.60072,2470.693,2023-5-14T07:45:45Z
2023-05-14T05:45:35Z,42.805,6.029,13.3019,4.60075,2470.73,2023-5-14T07:48:48Z
2023-05-14T05:48:38Z,42.805,6.029,13.3019,4.60077,2470.707,2023-5-14T07:51:51Z
2023-05-14T05:51:41Z,42.805,6.029,13.3017,4.60077,2470.73,2023-5-14T07:54:54Z
2023-05-14T05:54:44Z,42.805,6.029,13.3015,4.60075,2470.717,2023-5-14T07:57:57Z
2023-05-14T05:57:47Z,42.805,6.029,13.3019,4.60074,2470.693,2023-5-14T08:01:00Z
2023-05-14T06:00:50Z,42.805,6.029,13.3013,4.60073,2470.67,2023-5-14T08:04:03Z
2023-05-14T06:03:53Z,42.805,6.029,13.3016,4.60075,2470.717,2023-5-14T08:07:06Z
2023-05-14T06:06:56Z,42.805,6.029,13.3019,4.60077,2470.707,2023-5-14T08:10:09Z
2023-05-14T06:09:59Z,42.805,6.029,13.3019,4.60074,2470.717,2023-5-14T08:13:12Z
2023-05-14T06:13:03Z,42.805,6.029,13.3016,4.60074,2470.67,2023-5-14T08:16:15Z
2023-05-14T06:16:06Z,42.805,6.029,13.3019,4.60074,2470.67,2023-5-14T08:19:18Z
2023-05-14T06:19:09Z,42.805,6.029,13.3016,4.60075,2470.661,2023-5-14T08:22:22Z
2023-05-14T06:22:12Z,42.805,6.029,13.3017,4.60074,2470.693,2023-5-14T08:25:25Z
2023-05-14T06:25:15Z,42.805,6.029,13.3015,4.60074,2470.67,2023-5-14T08:28:28Z
2023-05-14T06:28:18Z,42.805,6.029,13.3018,4.60074,2470.707,2023-5-14T08:31:31Z
2023-05-14T06:31:21Z,42.805,6.029,13.3020,4.60074,2470.693,2023-5-14T08:34:34Z
2023-05-14T06:34:24Z,42.805,6.029,13.3019,4.60072,2470.693,2023-5-14T08:37:37Z
2023-05-14T06:37:27Z,42.805,6.029,13.3014,4.60077,2470.67,2023-5-14T08:40:40Z
2023-05-14T06:40:30Z,42.805,6.029,13.3015,4.60073,2470.661,2023-5-14T08:43:43Z
2023-05-14T06:43:33Z,42.805,6.029,13.3016,4.60074,2470.67,2023-5-14T08:46:46Z
2023-05-14T06:46:36Z,42.805,6.029,13.3014,4.60074,2470.684,2023-5-14T08:49:49Z
2023-05-14T06:49:40Z,42.805,6.029,13.3014,4.60074,2470.646,2023-5-14T08:52:52Z
2023-05-14T06:52:43Z,42.805,6.029,13.3015,4.60079,2470.646,2023-5-14T08:55:56Z
2023-05-14T06:55:46Z,42.805,6.029,13.3018,4.60080,2470.684,2023-5-14T08:58:59Z
2023-05-14T06:58:49Z,42.805,6.029,13.3014,4.60075,2470.67,2023-5-14T09:02:02Z
2023-05-14T07:01:52Z,42.805,6.029,13.3013,4.60075,2470.684,2023-5-14T09:05:05Z
2023-05-14T07:04:55Z,42.805,6.029,13.3017,4.60074,2470.684,2023-5-14T09:08:08Z
2023-05-14T07:07:58Z,42.805,6.029,13.3015,4.60077,2470.684,2023-5-14T09:11:11Z
2023-05-14T07:11:01Z,42.805,6.029,13.3014,4.60077,2470.637,2023-5-14T09:14:14Z
2023-05-14T07:14:04Z,42.805,6.029,13.3013,4.60079,2470.633,2023-5-14T09:17:17Z
2023-05-14T07:17:07Z,42.805,6.029,13.3018,4.60072,2470.67,2023-5-14T09:20:20Z
2023-05-14T07:20:10Z,42.805,6.029,13.3017,4.60074,2470.661,2023-5-14T09:23:23Z
2023-05-14T07:23:13Z,42.805,6.029,13.3019,4.60073,2470.661,2023-5-14T09:26:26Z
2023-05-14T07:26:17Z,42.805,6.029,13.3019,4.60071,2470.637,2023-5-14T09:29:29Z
2023-05-14T07:29:20Z,42.805,6.029,13.3015,4.60074,2470.624,2023-5-14T09:32:32Z
2023-05-14T07:32:23Z,42.805,6.029,13.3012,4.60074,2470.637,2023-5-14T09:35:36Z
2023-05-14T07:35:26Z,42.805,6.029,13.3014,4.60074,2470.637,2023-5-14T09:38:39Z
2023-05-14T07:38:29Z,42.805,6.029,13.3015,4.60073,2470.624,2023-5-14T09:41:42Z
2023-05-14T07:41:32Z,42.805,6.029,13.3018,4.60077,2470.61,2023-5-14T09:44:45Z
2023-05-14T07:44:35Z,42.805,6.029,13.3018,4.60080,2470.661,2023-5-14T09:47:48Z
2023-05-14T07:47:38Z,42.805,6.029,13.3015,4.60082,2470.61,2023-5-14T09:50:51Z
2023-05-14T07:50:41Z,42.805,6.029,13.3015,4.60081,2470.637,2023-5-14T09:53:54Z
2023-05-14T07:53:44Z,42.805,6.029,13.3015,4.60074,2470.624,2023-5-14T09:56:57Z
2023-05-14T07:56:47Z,42.805,6.029,13.3016,4.60076,2470.624,2023-5-14T10:00:00Z
2023-05-14T07:59:50Z,42.805,6.029,13.3017,4.60076,2470.614,2023-5-14T10:03:03Z
2023-05-14T08:02:54Z,42.805,6.029,13.3017,4.60076,2470.6,2023-5-14T10:06:06Z
2023-05-14T08:05:57Z,42.805,6.029,13.3014,4.60074,2470.6,2023-5-14T10:09:09Z
2023-05-14T08:09:00Z,42.805,6.029,13.3020,4.60077,2470.637,2023-5-14T10:12:13Z
2023-05-14T08:12:03Z,42.805,6.029,13.3015,4.60084,2470.586,2023-5-14T10:15:16Z
2023-05-14T08:15:06Z,42.805,6.029,13.3018,4.60081,2470.6,2023-5-14T10:18:19Z
2023-05-14T08:18:09Z,42.805,6.029,13.3014,4.60079,2470.553,2023-5-14T10:21:22Z
2023-05-14T08:21:12Z,42.805,6.029,13.3015,4.60080,2470.6,2023-5-14T10:24:25Z
2023-05-14T08:24:15Z,42.805,6.029,13.3019,4.60077,2470.614,2023-5-14T10:27:28Z
2023-05-14T08:27:18Z,42.805,6.029,13.3019,4.60079,2470.614,2023-5-14T10:30:31Z
2023-05-14T08:30:22Z,42.805,6.029,13.3019,4.60079,2470.577,2023-5-14T10:33:35Z
2023-05-14T08:33:25Z,42.805,6.029,13.3018,4.60076,2470.614,2023-5-14T10:36:38Z
2023-05-14T08:36:28Z,42.805,6.029,13.3015,4.60075,2470.614,2023-5-14T10:39:41Z
2023-05-14T08:39:31Z,42.805,6.029,13.3015,4.60077,2470.6,2023-5-14T10:42:44Z
2023-05-14T08:42:34Z,42.805,6.029,13.3017,4.60079,2470.637,2023-5-14T10:45:47Z
2023-05-14T08:45:37Z,42.805,6.029,13.3020,4.60079,2470.591,2023-5-14T10:48:50Z
2023-05-14T08:48:40Z,42.805,6.029,13.3015,4.60082,2470.591,2023-5-14T10:51:53Z
2023-05-14T08:51:43Z,42.805,6.029,13.3017,4.60078,2470.6,2023-5-14T10:54:56Z
2023-05-14T08:54:47Z,42.805,6.029,13.3011,4.60077,2470.577,2023-5-14T10:57:59Z
2023-05-14T08:57:50Z,42.805,6.029,13.3014,4.60078,2470.577,2023-5-14T11:01:03Z
2023-05-14T09:00:53Z,42.805,6.029,13.3015,4.60072,2470.6,2023-5-14T11:04:06Z
2023-05-14T09:03:56Z,42.805,6.029,13.3016,4.60078,2470.591,2023-5-14T11:07:09Z
2023-05-14T09:06:59Z,42.805,6.029,13.3018,4.60077,2470.6,2023-5-14T11:10:12Z
2023-05-14T09:10:02Z,42.805,6.029,13.3016,4.60077,2470.591,2023-5-14T11:13:15Z
2023-05-14T09:13:05Z,42.805,6.029,13.3015,4.60076,2470.577,2023-5-14T11:16:18Z
2023-05-14T09:16:08Z,42.805,6.029,13.3016,4.60074,2470.577,2023-5-14T11:19:21Z
2023-05-14T09:19:11Z,42.805,6.029,13.3014,4.60074,2470.614,2023-5-14T11:22:24Z
2023-05-14T09:22:14Z,42.805,6.029,13.3014,4.60075,2470.567,2023-5-14T11:25:27Z
2023-05-14T09:25:17Z,42.805,6.029,13.3018,4.60075,2470.553,2023-5-14T11:28:30Z
2023-05-14T09:28:20Z,42.805,6.029,13.3013,4.60077,2470.553,2023-5-14T11:31:33Z
2023-05-14T09:31:24Z,42.805,6.029,13.3020,4.60077,2470.553,2023-5-14T11:34:36Z
2023-05-14T09:34:27Z,42.805,6.029,13.3018,4.60077,2470.553,2023-5-14T11:37:40Z
2023-05-14T09:37:30Z,42.805,6.029,13.3019,4.60075,2470.53,2023-5-14T11:40:43Z
2023-05-14T09:40:33Z,42.805,6.029,13.3017,4.60073,2470.577,2023-5-14T11:43:46Z
2023-05-14T09:43:36Z,42.805,6.029,13.3017,4.60075,2470.53,2023-5-14T11:46:49Z
2023-05-14T09:46:39Z,42.805,6.029,13.3015,4.60075,2470.591,2023-5-14T11:49:52Z
2023-05-14T09:49:42Z,42.805,6.029,13.3016,4.60079,2470.53,2023-5-14T11:52:55Z
2023-05-14T09:52:45Z,42.805,6.029,13.3017,4.60081,2470.53,2023-5-14T11:55:58Z
2023-05-14T09:55:48Z,42.805,6.029,13.3016,4.60077,2470.591,2023-5-14T11:59:01Z
2023-05-14T09:58:51Z,42.805,6.029,13.3015,4.60075,2470.563,2023-5-14T12:02:04Z
2023-05-14T10:01:54Z,42.805,6.029,13.3018,4.60075,2470.553,2023-5-14T12:05:07Z
2023-05-14T10:04:57Z,42.805,6.029,13.3015,4.60074,2470.577,2023-5-14T12:08:10Z
2023-05-14T10:08:01Z,42.805,6.029,13.3018,4.60077,2470.567,2023-5-14T12:11:13Z
2023-05-14T10:11:04Z,42.805,6.029,13.3015,4.60074,2470.567,2023-5-14T12:14:17Z
2023-05-14T10:14:07Z,42.805,6.029,13.3013,4.60074,2470.53,2023-5-14T12:17:20Z
2023-05-14T10:17:10Z,42.805,6.029,13.3014,4.60074,2470.553,2023-5-14T12:20:23Z
2023-05-14T10:20:13Z,42.805,6.029,13.3014,4.60076,2470.553,2023-5-14T12:23:26Z
2023-05-14T10:23:16Z,42.805,6.029,13.3016,4.60075,2470.553,2023-5-14T12:26:29Z
2023-05-14T10:26:19Z,42.805,6.029,13.3015,4.60074,2470.591,2023-5-14T12:29:32Z
2023-05-14T10:29:22Z,42.805,6.029,13.3015,4.60074,2470.553,2023-5-14T12:32:35Z
2023-05-14T10:32:25Z,42.805,6.029,13.3012,4.60077,2470.567,2023-5-14T12:35:38Z
2023-05-14T10:35:28Z,42.805,6.029,13.3016,4.60074,2470.567,2023-5-14T12:38:41Z
2023-05-14T10:38:31Z,42.805,6.029,13.3015,4.60072,2470.544,2023-5-14T12:41:44Z
2023-05-14T10:41:35Z,42.805,6.029,13.3014,4.60074,2470.516,2023-5-14T12:44:47Z
2023-05-14T10:44:38Z,42.805,6.029,13.3015,4.60074,2470.53,2023-5-14T12:47:51Z
2023-05-14T10:47:41Z,42.805,6.029,13.3015,4.60073,2470.553,2023-5-14T12:50:54Z
2023-05-14T10:50:44Z,42.805,6.029,13.3014,4.60078,2470.553,2023-5-14T12:53:57Z
2023-05-14T10:53:47Z,42.805,6.029,13.3016,4.60075,2470.553,2023-5-14T12:57:00Z
2023-05-14T10:56:50Z,42.805,6.029,13.3015,4.60074,2470.577,2023-5-14T13:00:03Z
2023-05-14T10:59:53Z,42.805,6.029,13.3015,4.60074,2470.553,2023-5-14T13:03:06Z
2023-05-14T11:02:56Z,42.805,6.029,13.3018,4.60076,2470.53,2023-5-14T13:06:09Z
2023-05-14T11:05:59Z,42.805,6.029,13.3017,4.60074,2470.567,2023-5-14T13:09:12Z
2023-05-14T11:09:02Z,42.805,6.029,13.3014,4.60077,2470.577,2023-5-14T13:12:15Z
2023-05-14T11:12:05Z,42.805,6.029,13.3018,4.60074,2470.591,2023-5-14T13:15:18Z
2023-05-14T11:15:08Z,42.805,6.029,13.3016,4.60079,2470.567,2023-5-14T13:18:21Z
2023-05-14T11:18:12Z,42.805,6.029,13.3013,4.60077,2470.567,2023-5-14T13:21:24Z
2023-05-14T11:21:15Z,42.805,6.029,13.3017,4.60078,2470.553,2023-5-14T13:24:28Z
2023-05-14T11:24:18Z,42.805,6.029,13.3015,4.60079,2470.577,2023-5-14T13:27:31Z
2023-05-14T11:27:21Z,42.805,6.029,13.3016,4.60079,2470.553,2023-5-14T13:30:34Z
2023-05-14T11:30:24Z,42.805,6.029,13.3014,4.60074,2470.591,2023-5-14T13:33:37Z
2023-05-14T11:33:27Z,42.805,6.029,13.3016,4.60074,2470.577,2023-5-14T13:36:40Z
2023-05-14T11:36:30Z,42.805,6.029,13.3016,4.60074,2470.553,2023-5-14T13:39:43Z
2023-05-14T11:39:33Z,42.805,6.029,13.3018,4.60074,2470.553,2023-5-14T13:42:46Z
2023-05-14T11:42:36Z,42.805,6.029,13.3014,4.60074,2470.553,2023-5-14T13:45:49Z
2023-05-14T11:45:39Z,42.805,6.029,13.3015,4.60075,2470.577,2023-5-14T13:48:52Z
2023-05-14T11:48:42Z,42.805,6.029,13.3016,4.60074,2470.6,2023-5-14T13:51:55Z
2023-05-14T11:51:46Z,42.805,6.029,13.3015,4.60074,2470.553,2023-5-14T13:54:58Z
2023-05-14T11:54:49Z,42.805,6.029,13.3016,4.60074,2470.577,2023-5-14T13:58:02Z
2023-05-14T11:57:52Z,42.805,6.029,13.3015,4.60079,2470.591,2023-5-14T14:01:05Z
2023-05-14T12:00:55Z,42.805,6.029,13.3019,4.60076,2470.577,2023-5-14T14:04:08Z
2023-05-14T12:03:58Z,42.805,6.029,13.3015,4.60074,2470.6,2023-5-14T14:07:11Z
2023-05-14T12:07:01Z,42.805,6.029,13.3020,4.60078,2470.591,2023-5-14T14:10:14Z
2023-05-14T12:10:04Z,42.805,6.029,13.3018,4.60077,2470.577,2023-5-14T14:13:17Z
2023-05-14T12:13:07Z,42.805,6.029,13.3019,4.60074,2470.567,2023-5-14T14:16:20Z
2023-05-14T12:16:10Z,42.805,6.029,13.3019,4.60075,2470.577,2023-5-14T14:19:23Z
2023-05-14T12:19:13Z,42.805,6.029,13.3015,4.60074,2470.6,2023-5-14T14:22:26Z
2023-05-14T12:22:16Z,42.805,6.029,13.3014,4.60074,2470.614,2023-5-14T14:25:29Z
2023-05-14T12:25:19Z,42.805,6.029,13.3020,4.60073,2470.6,2023-5-14T14:28:32Z
2023-05-14T12:28:23Z,42.805,6.029,13.3015,4.60072,2470.577,2023-5-14T14:31:36Z
2023-05-14T12:31:26Z,42.805,6.029,13.3016,4.60072,2470.637,2023-5-14T14:34:39Z
2023-05-14T12:34:30Z,42.805,6.029,13.3012,4.60074,2470.577,2023-5-14T14:37:43Z
2023-05-14T12:37:33Z,42.805,6.029,13.3015,4.60074,2470.614,2023-5-14T14:40:46Z
2023-05-14T12:40:36Z,42.805,6.029,13.3018,4.60075,2470.591,2023-5-14T14:43:49Z
2023-05-14T12:43:39Z,42.805,6.029,13.3018,4.60074,2470.6,2023-5-14T14:46:52Z
2023-05-14T12:46:42Z,42.805,6.029,13.3019,4.60075,2470.6,2023-5-14T14:49:55Z
2023-05-14T12:49:45Z,42.805,6.029,13.3013,4.60074,2470.577,2023-5-14T14:52:58Z
2023-05-14T12:52:48Z,42.805,6.029,13.3017,4.60074,2470.614,2023-5-14T14:56:01Z
2023-05-14T12:55:51Z,42.805,6.029,13.3015,4.60074,2470.614,2023-5-14T14:59:04Z
2023-05-14T12:58:54Z,42.805,6.029,13.3019,4.60077,2470.624,2023-5-14T15:02:07Z
2023-05-14T13:01:57Z,42.805,6.029,13.3018,4.60075,2470.624,2023-5-14T15:05:10Z
2023-05-14T13:05:00Z,42.805,6.029,13.3019,4.60075,2470.624,2023-5-14T15:08:13Z
2023-05-14T13:08:04Z,42.805,6.029,13.3017,4.60075,2470.624,2023-5-14T15:11:16Z
2023-05-14T13:11:07Z,42.805,6.029,13.3018,4.60074,2470.614,2023-5-14T15:14:20Z
2023-05-14T13:14:10Z,42.805,6.029,13.3016,4.60074,2470.646,2023-5-14T15:17:23Z
2023-05-14T13:17:13Z,42.805,6.029,13.3018,4.60074,2470.624,2023-5-14T15:20:26Z
2023-05-14T13:20:16Z,42.805,6.029,13.3015,4.60074,2470.624,2023-5-14T15:23:29Z
2023-05-14T13:23:19Z,42.805,6.029,13.3015,4.60075,2470.637,2023-5-14T15:26:32Z
2023-05-14T13:26:22Z,42.805,6.029,13.3016,4.60075,2470.624,2023-5-14T15:29:35Z
2023-05-14T13:29:25Z,42.805,6.029,13.3016,4.60074,2470.661,2023-5-14T15:32:38Z
2023-05-14T13:32:28Z,42.805,6.029,13.3017,4.60077,2470.624,2023-5-14T15:35:41Z
2023-05-14T13:35:31Z,42.805,6.029,13.3015,4.60074,2470.646,2023-5-14T15:38:44Z
2023-05-14T13:38:34Z,42.805,6.029,13.3019,4.60074,2470.6,2023-5-14T15:41:47Z
2023-05-14T13:41:37Z,42.805,6.029,13.3015,4.60075,2470.661,2023-5-14T15:44:50Z
2023-05-14T13:44:41Z,42.805,6.029,13.3016,4.60074,2470.646,2023-5-14T15:47:54Z
2023-05-14T13:47:44Z,42.805,6.029,13.3016,4.60074,2470.624,2023-5-14T15:50:57Z
2023-05-14T13:50:47Z,42.805,6.029,13.3015,4.60075,2470.624,2023-5-14T15:54:00Z
2023-05-14T13:53:50Z,42.805,6.029,13.3017,4.60074,2470.661,2023-5-14T15:57:03Z
2023-05-14T13:56:53Z,42.805,6.029,13.3019,4.60075,2470.624,2023-5-14T16:00:06Z
2023-05-14T13:59:56Z,42.805,6.029,13.3016,4.60077,2470.646,2023-5-14T16:03:09Z
2023-05-14T14:02:59Z,42.805,6.029,13.3014,4.60077,2470.637,2023-5-14T16:06:12Z
2023-05-14T14:06:02Z,42.805,6.029,13.3017,4.60074,2470.624,2023-5-14T16:09:15Z
2023-05-14T14:09:05Z,42.805,6.029,13.3019,4.60075,2470.624,2023-5-14T16:12:18Z
2023-05-14T14:12:08Z,42.805,6.029,13.3015,4.60073,2470.624,2023-5-14T16:15:21Z
2023-05-14T14:15:11Z,42.805,6.029,13.3014,4.60073,2470.646,2023-5-14T16:18:24Z
2023-05-14T14:18:14Z,42.805,6.029,13.3016,4.60075,2470.624,2023-5-14T16:21:27Z
2023-05-14T14:21:18Z,42.805,6.029,13.3017,4.60074,2470.661,2023-5-14T16:24:31Z
2023-05-14T14:24:21Z,42.805,6.029,13.3016,4.60074,2470.646,2023-5-14T16:27:34Z
2023-05-14T14:27:24Z,42.805,6.029,13.3015,4.60074,2470.67,2023-5-14T16:30:37Z
2023-05-14T14:30:25Z,42.805,6.029,13.3014,4.60074,2470.6,2023-5-14T16:33:38Z
2023-05-14T14:33:28Z,42.805,6.029,13.3013,4.60074,2470.646,2023-5-14T16:36:41Z
2023-05-14T14:36:31Z,42.805,6.029,13.3014,4.60074,2470.646,2023-5-14T16:39:44Z
2023-05-14T14:39:34Z,42.805,6.029,13.3015,4.60074,2470.646,2023-5-14T16:42:47Z
2023-05-14T14:42:37Z,42.805,6.029,13.3018,4.60073,2470.646,2023-5-14T16:45:50Z
2023-05-14T14:45:41Z,42.805,6.029,13.3017,4.60075,2470.624,2023-5-14T16:48:54Z
2023-05-14T14:48:44Z,42.805,6.029,13.3016,4.60072,2470.684,2023-5-14T16:51:57Z
2023-05-14T14:51:47Z,42.805,6.029,13.3019,4.60074,2470.646,2023-5-14T16:55:00Z
2023-05-14T14:54:50Z,42.805,6.029,13.3016,4.60076,2470.651,2023-5-14T16:58:03Z
2023-05-14T14:57:53Z,42.805,6.029,13.3019,4.60072,2470.661,2023-5-14T17:01:06Z
2023-05-14T15:00:56Z,42.805,6.029,13.3016,4.60074,2470.646,2023-5-14T17:04:09Z
2023-05-14T15:03:59Z,42.805,6.029,13.3015,4.60074,2470.624,2023-5-14T17:07:12Z
2023-05-14T15:07:02Z,42.805,6.029,13.3014,4.60077,2470.661,2023-5-14T17:10:15Z
2023-05-14T15:10:05Z,42.805,6.029,13.3020,4.60075,2470.67,2023-5-14T17:13:18Z
2023-05-14T15:13:08Z,42.805,6.029,13.3019,4.60074,2470.646,2023-5-14T17:16:21Z